[[{"header":{"parameterUnit":"m.s-1","parameterCategory":1,"la1":30.2991,"la2":30.254,"lo1":-89.0895,"lo2":-89.0444,"dy":0.0017,"dx":0.0017,"nx":28,"ny":28,"refTime":"2024-08-04T09:00:00:Z","depth":0,"parameterNumber":2,"parameterNumberName":"U-component_of_WINDS"},"data":[0,0,0,0,0,0,0,0,0,0,0,0,0,0,0,0,0,0,0,0,0,0,0,0,0,0,0,0,0,0,0,0,0,0,0,0,0,0,0,0,0,0,0,0,0,0,0,0,0,0,0,0,0,0,0,0,0,0,-1.6999,-1.7,0,-1.7115,-1.7116,-1.7118,-1.7078,-1.7075,-1.7073,-1.707,-1.7192,-1.7197,-1.7203,0,0,0,0,0,0,0,0,0,0,0,0,0,-1.6743,-1.6748,-1.6999,-1.7,-1.7002,-1.7115,-1.7116,-1.7118,-1.7078,-1.7075,-1.7072,-1.7069,-1.719,-1.7197,-1.7203,0,0,0,0,0,0,0,0,0,0,0,0,0,-1.6857,-1.675,-1.6998,-1.6995,-1.6996,-1.7115,-1.7117,-1.7118,-1.7079,-1.7075,-1.7071,-1.7068,-1.7188,-1.7196,-1.7204,-1.7333,0,0,-1.723,-1.7234,0,0,0,0,0,0,0,0,-1.685,-1.6866,-1.6994,-1.6996,-1.6997,-1.7078,-1.7071,-1.7191,-1.708,-1.7048,-1.707,-1.7066,-1.7157,-1.7168,-1.7198,-1.7339,-1.7344,-1.7231,-1.7236,-1.7239,-1.7242,0,0,0,0,0,0,0,-1.6842,-1.6861,-1.7045,-1.6996,-1.6998,-1.6989,-1.7,-1.7093,-1.7123,-1.705,-1.7047,-1.7062,-1.7157,-1.719,-1.7201,-1.7346,-1.7231,-1.7238,-1.7243,-1.7247,-1.76,-1.7604,0,0,0,0,0,0,-1.6834,-1.6854,-1.7041,-1.7048,-1.6912,-1.6996,-1.7009,-1.7056,-1.7121,-1.7128,-1.7065,-1.7059,-1.7178,-1.7191,-1.7205,-1.7362,-1.7239,-1.7247,-1.7252,-1.7595,-1.76,-1.7605,0,0,0,0,0,0,-1.6828,-1.6851,-1.7036,-1.6951,-1.6974,-1.7005,-1.7057,-1.706,-1.7093,-1.7133,-1.7138,-1.7093,-1.7175,-1.7193,-1.7302,-1.7365,-1.7251,-1.7259,-1.759,-1.7597,-1.7603,-1.7676,0,0,0,0,0,0,-1.6821,-1.6849,-1.6898,-1.6952,-1.6978,-1.7131,-1.7061,-1.7065,-1.7108,-1.7102,-1.7161,-1.7167,-1.7173,-1.7289,-1.731,-1.7375,-1.7265,-1.7585,-1.7593,-1.7601,-1.7668,-1.7684,-1.7698,0,0,0,0,0,-1.6812,-1.6914,-1.6901,-1.6924,-1.704,-1.7135,-1.715,-1.7155,-1.7113,-1.7163,-1.7188,-1.7165,-1.7354,-1.7301,-1.7324,-1.7392,-1.7581,-1.7591,-1.76,-1.7661,-1.7681,-1.7697,0,0,0,0,0,0,-1.6868,-1.6921,-1.6907,-1.703,-1.7078,-1.7128,-1.7191,-1.7175,-1.7238,-1.7229,-1.7233,-1.7247,-1.7359,-1.7386,-1.7326,-1.7521,-1.7461,-1.7476,-1.75,-1.7519,-1.7533,-1.7526,-1.7272,0,0,0,0,0,-1.6894,-1.6966,-1.7009,-1.7113,-1.7138,-1.716,-1.7202,-1.7201,-1.7252,-1.7272,-1.7305,-1.7356,-1.7427,-1.7474,-1.7541,-1.767,-1.7684,-1.7729,-1.7743,-1.7755,-1.7769,-1.7841,-1.7862,-1.7637,-1.7637,-1.7637,0,0,-1.695,-1.6988,-1.7033,-1.7125,-1.7162,-1.7238,-1.7178,-1.726,-1.7316,-1.7285,-1.739,-1.7416,-1.7473,-1.7593,-1.7647,-1.7618,-1.7834,-1.7768,-1.7777,-1.7784,-1.7853,-1.7874,-1.7893,-1.7644,-1.7642,-1.7641,0,0,-1.7091,-1.7126,-1.7217,-1.7255,-1.7312,-1.7326,-1.7348,-1.7401,-1.7417,-1.7522,-1.75,-1.7567,-1.7689,-1.773,-1.7767,-1.7922,-1.7904,-1.7944,-1.8023,-1.8092,-1.811,-1.8126,-1.8183,-1.8203,-1.7957,-1.7957,-1.7957,0,-1.7153,-1.7265,-1.7266,-1.735,-1.7391,-1.7365,-1.7458,-1.7495,-1.7572,-1.7602,-1.7568,-1.772,-1.7756,-1.7886,-1.7924,-1.7954,-1.798,-1.7939,-1.8107,-1.8123,-1.8138,-1.8192,-1.8214,-1.7961,-1.7961,-1.796,-1.796,0,-1.734,-1.7417,-1.7484,-1.7558,-1.7607,-1.7695,-1.771,-1.7759,-1.7753,-1.7771,-1.7879,-1.7921,-1.7997,-1.8027,-1.8023,-1.8157,-1.8137,-1.8105,-1.8046,-1.8164,-1.8215,-1.8236,-1.7968,-1.7967,-1.7965,-1.7964,0,0,-1.7521,-1.7594,-1.7618,-1.7652,-1.7712,-1.7773,-1.7859,-1.7933,-1.7975,-1.8028,-1.8102,-1.8205,-1.8176,-1.8218,-1.8218,-1.8279,-1.8401,-1.824,-1.8241,-1.827,-1.8553,-1.8578,-1.8602,-1.8387,-1.8391,-1.8395,-1.8548,0,-1.7668,-1.782,-1.7823,-1.7963,-1.8036,-1.8011,-1.8087,-1.8132,-1.8151,-1.8215,-1.8236,-1.831,-1.8264,-1.829,-1.8349,-1.8374,-1.8458,-1.8362,-1.8458,-1.8461,-1.8447,-1.8629,-1.8656,-1.8799,-1.8568,-1.8572,-1.8574,0,-1.7861,-1.792,-1.8067,-1.8117,-1.8147,-1.8215,-1.8283,-1.8344,-1.8395,-1.8405,-1.8451,-1.8442,-1.8531,-1.8466,-1.859,-1.8525,-1.8564,-1.8582,-1.8587,-1.8599,-1.8527,-1.8647,-1.8845,-1.8867,-1.8605,-1.8603,-1.8601,0,-1.7981,-1.8097,-1.82,-1.8229,-1.829,-1.8338,-1.8366,-1.8413,-1.8457,-1.8515,-1.8544,-1.8613,-1.8651,-1.8705,-1.8714,-1.8666,-1.8839,-1.8775,-1.885,-1.885,-1.889,-1.8888,-1.91,-1.8911,-1.8911,-1.891,-1.891,0,-1.8147,-1.8239,-1.8255,-1.8319,-1.8421,-1.8423,-1.8524,-1.8547,-1.8589,-1.8658,-1.864,-1.8705,-1.8712,-1.8779,-1.8787,-1.8889,-1.8906,-1.8917,-1.8918,-1.892,-1.8919,-1.8948,-1.8939,-1.8916,-1.8915,-1.8914,-1.8913,0,-1.83,-1.8315,-1.8426,-1.8473,-1.8487,-1.8561,-1.8601,-1.8663,-1.8678,-1.8765,-1.8786,-1.8811,-1.8889,-1.8903,-1.8995,-1.9,-1.9122,-1.9113,-1.9106,-1.9105,-1.9181,-1.9174,-1.942,-1.9453,-1.9241,-1.9243,-1.9245,0,-1.8406,-1.8476,-1.8531,-1.8575,-1.8605,-1.8676,-1.8721,-1.8725,-1.8772,-1.8835,-1.8889,-1.8965,-1.9026,-1.9151,-1.9178,-1.9249,-1.9242,-1.9323,-1.9253,-1.9252,-1.9246,-1.9243,-1.925,-1.9338,-1.934,-1.9342,-1.9343,0,-1.8594,-1.8597,-1.8662,-1.8729,-1.8783,-1.8836,-1.8887,-1.8924,-1.8935,-1.8989,-1.9068,-1.9115,-1.9208,-1.9284,-1.9354,-1.9382,-1.9366,-1.9365,-1.9386,-1.939,-1.9384,-1.939,-1.9145,-1.936,-1.9358,-1.9357,-1.9356,-1.9355,-1.8728,-1.8789,-1.8837,-1.891,-1.8948,-1.8996,-1.9056,-1.9079,-1.9144,-1.9221,-1.9218,-1.9306,-1.9355,-1.9446,-1.9479,-1.9548,-1.9522,-1.9553,-1.9561,-1.957,-1.9578,-1.9371,-1.956,-1.956,-1.9559,-1.9559,-1.9559,0,-1.8917,-1.8946,-1.9012,-1.9084,-1.9141,-1.9118,-1.9172,-1.9222,-1.9299,-1.9345,-1.9405,-1.9497,-1.957,-1.9602,-1.9674,-1.9723,-1.9717,-1.9742,-1.974,-1.9747,-1.9596,-1.9571,-1.9745,-1.9745,-1.9745,-1.9745,-1.9745,-1.9745,-1.9022,-1.9124,-1.9133,-1.9255,-1.9283,-1.9368,-1.9402,-1.9446,-1.9483,-1.9585,-1.9646,-1.9665,-1.9707,-1.9782,-1.9848,-1.9855,-1.9884,-1.9913,-1.9917,-1.9776,-1.9757,-1.9739,-1.9716,-1.9919,-1.9919,-2.0063,-2.0064,-2.0065]},{"header":{"parameterUnit":"m.s-1","parameterCategory":1,"la1":30.2991,"la2":30.254,"lo1":-89.0895,"lo2":-89.0444,"dy":0.0017,"dx":0.0017,"nx":28,"ny":28,"refTime":"2024-08-04T09:00:00:Z","depth":0,"parameterNumber":3,"parameterNumberName":"V-component_of_WINDS"},"data":[0,0,0,0,0,0,0,0,0,0,0,0,0,0,0,0,0,0,0,0,0,0,0,0,0,0,0,0,0,0,0,0,0,0,0,0,0,0,0,0,0,0,0,0,0,0,0,0,0,0,0,0,0,0,0,0,0,0,-4.8355,-4.8356,0,-4.8459,-4.846,-4.8462,-4.841,-4.8407,-4.8404,-4.8402,-4.8504,-4.8509,-4.8515,0,0,0,0,0,0,0,0,0,0,0,0,0,-4.8105,-4.811,-4.8355,-4.8356,-4.8357,-4.8459,-4.8461,-4.8462,-4.841,-4.8407,-4.8404,-4.84,-4.8503,-4.8509,-4.8515,0,0,0,0,0,0,0,0,0,0,0,0,0,-4.8212,-4.8112,-4.8354,-4.8344,-4.8344,-4.8459,-4.8461,-4.8462,-4.8411,-4.8407,-4.8403,-4.8399,-4.8501,-4.8508,-4.8516,-4.8646,0,0,-4.854,-4.8543,0,0,0,0,0,0,0,0,-4.8206,-4.8221,-4.8344,-4.8345,-4.8345,-4.8417,-4.841,-4.8524,-4.8412,-4.8385,-4.8402,-4.8397,-4.8478,-4.8488,-4.8516,-4.8651,-4.8655,-4.8541,-4.8546,-4.8549,-4.8551,0,0,0,0,0,0,0,-4.8199,-4.8216,-4.8396,-4.8346,-4.8347,-4.8332,-4.8343,-4.8431,-4.8453,-4.8387,-4.8384,-4.8397,-4.8478,-4.8509,-4.8518,-4.8657,-4.8541,-4.8548,-4.8552,-4.8556,-4.8902,-4.8906,0,0,0,0,0,0,-4.8192,-4.821,-4.8393,-4.8399,-4.8264,-4.834,-4.8352,-4.8398,-4.8452,-4.8457,-4.84,-4.8394,-4.8497,-4.8509,-4.8522,-4.8677,-4.8549,-4.8556,-4.8561,-4.8897,-4.8903,-4.8908,0,0,0,0,0,0,-4.8187,-4.8209,-4.8388,-4.8304,-4.8326,-4.8349,-4.8401,-4.8402,-4.8433,-4.8462,-4.8465,-4.8429,-4.8495,-4.8511,-4.8616,-4.868,-4.856,-4.8567,-4.8892,-4.8899,-4.8905,-4.8989,0,0,0,0,0,0,-4.818,-4.8208,-4.8259,-4.8306,-4.833,-4.8482,-4.8405,-4.8407,-4.8448,-4.8441,-4.8489,-4.8493,-4.8493,-4.8604,-4.8623,-4.8689,-4.8573,-4.8886,-4.8895,-4.8903,-4.8981,-4.8998,-4.9013,0,0,0,0,0,-4.8171,-4.8277,-4.8261,-4.8284,-4.8395,-4.8486,-4.85,-4.8499,-4.8453,-4.8504,-4.8522,-4.8492,-4.867,-4.8615,-4.8637,-4.8705,-4.8882,-4.8893,-4.8902,-4.8974,-4.8995,-4.9012,0,0,0,0,0,0,-4.8236,-4.8283,-4.8266,-4.8391,-4.8435,-4.8477,-4.8541,-4.8521,-4.8578,-4.8569,-4.8563,-4.8574,-4.8683,-4.8704,-4.8643,-4.8833,-4.8769,-4.8783,-4.8816,-4.8836,-4.8851,-4.8844,-4.858,0,0,0,0,0,-4.8265,-4.8337,-4.8373,-4.848,-4.8503,-4.8518,-4.8558,-4.8553,-4.8598,-4.8616,-4.8642,-4.8686,-4.8751,-4.8794,-4.8856,-4.8983,-4.8992,-4.9041,-4.9057,-4.9069,-4.9082,-4.915,-4.9172,-4.8941,-4.894,-4.894,0,0,-4.8325,-4.836,-4.8405,-4.8493,-4.8527,-4.86,-4.8534,-4.8615,-4.8668,-4.8628,-4.8729,-4.8749,-4.8797,-4.8914,-4.8966,-4.8935,-4.9148,-4.9082,-4.9092,-4.9098,-4.9163,-4.9185,-4.9204,-4.8947,-4.8946,-4.8945,0,0,-4.8472,-4.8506,-4.8598,-4.8633,-4.8685,-4.8695,-4.8717,-4.8763,-4.8775,-4.8877,-4.8848,-4.891,-4.9023,-4.9059,-4.9091,-4.9251,-4.9225,-4.9271,-4.9354,-4.942,-4.9438,-4.9455,-4.9511,-4.9531,-4.9283,-4.9284,-4.9284,0,-4.854,-4.865,-4.8647,-4.873,-4.8769,-4.8737,-4.8829,-4.8863,-4.8932,-4.8959,-4.8923,-4.9064,-4.9094,-4.9218,-4.9257,-4.9285,-4.9308,-4.9265,-4.9436,-4.9452,-4.9467,-4.9521,-4.9542,-4.9289,-4.9288,-4.9288,-4.9287,0,-4.8731,-4.8808,-4.8875,-4.8945,-4.8991,-4.9078,-4.9087,-4.9134,-4.9124,-4.9137,-4.924,-4.9274,-4.9343,-4.9371,-4.9362,-4.9494,-4.9473,-4.9437,-4.9372,-4.9495,-4.9545,-4.9566,-4.9296,-4.9294,-4.9293,-4.9292,0,0,-4.8922,-4.8988,-4.9013,-4.9044,-4.9099,-4.9157,-4.9242,-4.931,-4.935,-4.9398,-4.9468,-4.9565,-4.9532,-4.9569,-4.9563,-4.9621,-4.9744,-4.9578,-4.9579,-4.9607,-4.9891,-4.9918,-4.9942,-4.9727,-4.9731,-4.9734,-4.9886,0,-4.9073,-4.9223,-4.9222,-4.936,-4.9431,-4.94,-4.9474,-4.9514,-4.9528,-4.9588,-4.9602,-4.9671,-4.9622,-4.9644,-4.9701,-4.9718,-4.9801,-4.9706,-4.9791,-4.9794,-4.9781,-4.9968,-4.9997,-5.0139,-4.9906,-4.9909,-4.9912,0,-4.9269,-4.9326,-4.9471,-4.9515,-4.9545,-4.9611,-4.9673,-4.9731,-4.9776,-4.9781,-4.9823,-4.9808,-4.9892,-4.9825,-4.994,-4.9875,-4.9909,-4.9923,-4.9928,-4.9936,-4.9861,-4.9981,-5.0185,-5.0206,-4.9943,-4.994,-4.9938,0,-4.9394,-4.9506,-4.9608,-4.9635,-4.9689,-4.9736,-4.976,-4.9801,-4.9842,-4.9895,-4.9921,-4.9983,-5.0016,-5.0064,-5.0065,-5.0016,-5.0181,-5.0114,-5.0187,-5.0187,-5.0224,-5.0222,-5.0436,-5.0246,-5.0245,-5.0245,-5.0244,0,-4.9563,-4.9653,-4.9665,-4.9727,-4.9827,-4.9824,-4.9922,-4.9941,-4.9978,-5.0042,-5.0019,-5.0079,-5.0077,-5.0138,-5.0139,-5.0234,-5.0249,-5.0255,-5.0255,-5.0258,-5.0257,-5.0281,-5.0271,-5.025,-5.0249,-5.0248,-5.0247,0,-4.972,-4.9731,-4.984,-4.9882,-4.9895,-4.9966,-5.0001,-5.006,-5.0071,-5.0153,-5.0172,-5.0189,-5.0259,-5.0265,-5.0346,-5.0347,-5.0462,-5.045,-5.0448,-5.0446,-5.0519,-5.0512,-5.0756,-5.0787,-5.0576,-5.0578,-5.058,0,-4.9827,-4.9896,-4.9946,-4.9988,-5.0016,-5.0084,-5.0125,-5.0124,-5.0168,-5.0224,-5.0275,-5.0344,-5.0399,-5.0512,-5.0531,-5.0592,-5.0582,-5.0663,-5.0591,-5.0592,-5.0583,-5.0579,-5.0586,-5.0677,-5.068,-5.0682,-5.0683,0,-5.0016,-5.0018,-5.008,-5.0144,-5.0195,-5.0244,-5.0291,-5.0326,-5.033,-5.038,-5.0453,-5.0496,-5.0579,-5.0647,-5.0707,-5.073,-5.0707,-5.0706,-5.0726,-5.073,-5.0726,-5.0729,-5.0486,-5.07,-5.0698,-5.0697,-5.0696,-5.0696,-5.0152,-5.0211,-5.0256,-5.0325,-5.036,-5.0404,-5.0461,-5.0479,-5.0541,-5.0609,-5.0604,-5.0684,-5.0725,-5.0804,-5.0832,-5.0893,-5.0865,-5.0895,-5.0902,-5.091,-5.0917,-5.0716,-5.0904,-5.0903,-5.0903,-5.0902,-5.0902,0,-5.0339,-5.0366,-5.043,-5.0497,-5.0551,-5.0526,-5.0575,-5.0622,-5.0693,-5.0734,-5.0789,-5.0871,-5.0937,-5.0961,-5.1024,-5.1068,-5.1059,-5.1085,-5.1082,-5.1087,-5.0938,-5.0915,-5.1091,-5.1091,-5.1091,-5.1091,-5.1091,-5.1091,-5.0444,-5.0543,-5.055,-5.0666,-5.0692,-5.0772,-5.0802,-5.0842,-5.0874,-5.0968,-5.1023,-5.1039,-5.1072,-5.1138,-5.1196,-5.1201,-5.1225,-5.1255,-5.1256,-5.1117,-5.1098,-5.1079,-5.1057,-5.1261,-5.1261,-5.1399,-5.1401,-5.1402]}]]